Overview Statistics Trail Chart Weather Telemetry Raw packets
 

This is the latest recevied weather packets stored in our database for station/object NY3Q. If no packets are shown the sender has not sent any weather packets the latest 10 day(s).

<< 110 111 112 113 114 >>
Time Temp. Humidity Pressure Rain* Wind** Luminosity Snow
1787773066 35.56° C 49% 1015.8 hPa 0 mm - 166 W/m² -
1787772761 36.11° C 48% 1015.3 hPa 0 mm - 615 W/m² -
1787772460 35.56° C 47% 1015.6 hPa 0 mm - 617 W/m² -
1787772159 35.56° C 47% 1015.5 hPa 0 mm - 650 W/m² -
1787771859 35.56° C 48% 1015.6 hPa 0 mm - 653 W/m² -
1787771558 35.56° C 50% 1015.7 hPa 0 mm - 615 W/m² -
1787771253 35° C 46% 1015.8 hPa 0 mm - 603 W/m² -
1787770948 35° C 47% 1015.9 hPa 0 mm - 499 W/m² -
1787770647 35.56° C 49% 1015.8 hPa 0 mm - 629 W/m² -
1787770341 35° C 58% 1015.8 hPa 0 mm - 633 W/m² -
1787770040 34.44° C 50% 1015.7 hPa 0 mm - 665 W/m² -
1787769735 35.56° C 49% 1015.9 hPa 0 mm - 409 W/m² -
1787769434 35.56° C 51% 1015.7 hPa 0 mm - 652 W/m² -
1787769129 35° C 52% 1015.5 hPa 0 mm - 658 W/m² -
1787768823 35° C 53% 1015.9 hPa 0 mm - 227 W/m² -
1787768520 35° C 51% 1015.5 hPa 0 mm - 124 W/m² -
1787768215 35° C 51% 1015.9 hPa 0 mm - 663 W/m² -
1787767911 35° C 52% 1015.8 hPa 0 mm - 299 W/m² -
1787767606 35° C 51% 1015.8 hPa 0 mm - 645 W/m² -
1787767305 35° C 52% 1016.2 hPa 0 mm - 649 W/m² -
1787767006 34.44° C 53% 1016.1 hPa 0 mm - 305 W/m² -
1787766704 34.44° C 52% 1016.1 hPa 0 mm - 645 W/m² -
1787766404 33.89° C 54% 1016.4 hPa 0 mm - 657 W/m² -
1787766103 33.89° C 57% 1016.4 hPa 0 mm - 193 W/m² -
1787765800 34.44° C 56% 1016.6 hPa 0 mm - 668 W/m² -

* Rain latest hour (hover to see other rain measurements)
** Current wind speed in m/s (hover to see current wind gust speed)